�������l�o���
Date,Time,MP-1(��Sv/h),MP-2(��Sv/h),MP-3(��Sv/h),MP-4(��Sv/h),MP-5(��Sv/h),MP-6(��Sv/h),MP-7(��Sv/h),MP-8(��Sv/h),����,����(m/s),���J
2018/04/12,00:00,0.874,1.449,0.909,1.685,1.163,0.490,0.859,0.824,�쐼,2.8,��
2018/04/12,00:10,0.871,1.449,0.908,1.688,1.160,0.488,0.859,0.822,���쐼,3.7,��
2018/04/12,00:20,0.874,1.452,0.909,1.688,1.163,0.490,0.861,0.824,���쐼,2.9,�L
2018/04/12,00:30,0.872,1.449,0.907,1.689,1.162,0.489,0.860,0.825,���k��,3.6,�L
2018/04/12,00:40,0.875,1.451,0.910,1.687,1.161,0.489,0.857,0.823,��,5.9,�L
2018/04/12,00:50,0.873,1.452,0.908,1.688,1.162,0.487,0.859,0.824,��,6.0,��
2018/04/12,01:00,0.875,1.452,0.910,1.686,1.160,0.489,0.857,0.824,��,7.9,�L
2018/04/12,01:10,0.875,1.449,0.910,1.691,1.160,0.489,0.859,0.824,��,8.5,�L
2018/04/12,01:20,0.874,1.453,0.911,1.689,1.161,0.487,0.859,0.822,��,7.8,��
2018/04/12,01:30,0.872,1.452,0.906,1.690,1.162,0.488,0.859,0.823,��,8.5,��
2018/04/12,01:40,0.876,1.453,0.911,1.692,1.160,0.488,0.859,0.821,��,10.5,�L
2018/04/12,01:50,0.875,1.453,0.911,1.691,1.160,0.491,0.857,0.823,��,12.5,�L
2018/04/12,02:00,0.874,1.455,0.910,1.690,1.162,0.491,0.859,0.822,��,13.6,�L
2018/04/12,02:10,0.874,1.454,0.909,1.691,1.162,0.489,0.859,0.821,��,12.4,��
2018/04/12,02:20,0.874,1.454,0.913,1.690,1.161,0.490,0.859,0.822,��,9.7,��
2018/04/12,02:30,0.876,1.453,0.912,1.690,1.162,0.490,0.858,0.823,��,11.0,��
2018/04/12,02:40,0.876,1.455,0.910,1.692,1.164,0.489,0.860,0.822,��,8.4,��
2018/04/12,02:50,0.876,1.456,0.911,1.693,1.165,0.490,0.857,0.822,���k��,9.8,��
2018/04/12,03:00,0.874,1.455,0.912,1.694,1.164,0.490,0.858,0.823,��,8.8,��
2018/04/12,03:10,0.875,1.458,0.913,1.695,1.164,0.490,0.858,0.824,��,7.4,��
2018/04/12,03:20,0.873,1.456,0.911,1.695,1.162,0.490,0.857,0.825,���k��,7.6,��
2018/04/12,03:30,0.874,1.455,0.912,1.692,1.165,0.489,0.857,0.823,���k��,9.1,��
2018/04/12,03:40,0.876,1.457,0.911,1.696,1.166,0.491,0.857,0.824,��,8.1,��
2018/04/12,03:50,0.875,1.455,0.910,1.696,1.165,0.489,0.858,0.824,��,8.9,��
2018/04/12,04:00,0.875,1.456,0.910,1.697,1.164,0.490,0.857,0.824,��,9.4,��
2018/04/12,04:10,0.875,1.451,0.911,1.693,1.166,0.490,0.856,0.822,��,8.2,��
2018/04/12,04:20,0.876,1.452,0.911,1.695,1.167,0.491,0.858,0.823,��,8.0,��
2018/04/12,04:30,0.876,1.456,0.910,1.693,1.166,0.490,0.858,0.825,��,5.6,��
2018/04/12,04:40,0.873,1.456,0.911,1.695,1.164,0.490,0.859,0.823,��,2.8,��
2018/04/12,04:50,0.874,1.457,0.911,1.696,1.165,0.490,0.859,0.825,�k��,2.3,��
2018/04/12,05:00,0.875,1.455,0.910,1.695,1.167,0.490,0.857,0.822,�k�k��,1.9,��
2018/04/12,05:10,0.875,1.456,0.909,1.694,1.164,0.490,0.858,0.822,�k,1.5,��
2018/04/12,05:20,0.875,1.455,0.910,1.693,1.164,0.489,0.859,0.823,�k,0.9,��
2018/04/12,05:30,0.873,1.455,0.912,1.695,1.165,0.488,0.858,0.823,�k�k��,1.1,��
2018/04/12,05:40,0.872,1.456,0.907,1.696,1.163,0.488,0.858,0.821,�k�k��,0.9,��
2018/04/12,05:50,0.875,1.460,0.910,1.694,1.166,0.488,0.858,0.821,�k��,0.9,��
2018/04/12,06:00,0.873,1.453,0.910,1.695,1.163,0.488,0.860,0.823,�k�k��,1.7,��
2018/04/12,06:10,0.874,1.455,0.910,1.693,1.165,0.489,0.860,0.822,�k�k��,2.5,��
2018/04/12,06:20,0.875,1.458,0.911,1.694,1.165,0.488,0.859,0.822,�k,3.0,��
2018/04/12,06:30,0.874,1.456,0.910,1.690,1.164,0.488,0.860,0.825,�k,4.5,��
2018/04/12,06:40,0.875,1.456,0.911,1.694,1.163,0.488,0.861,0.823,�k�k��,4.2,��
2018/04/12,06:50,0.875,1.455,0.909,1.691,1.165,0.488,0.860,0.824,�k�k��,4.4,��
2018/04/12,07:00,0.874,1.457,0.910,1.695,1.164,0.488,0.859,0.824,�k��,4.0,��
2018/04/12,07:10,0.875,1.457,0.911,1.692,1.164,0.487,0.860,0.821,�k��,4.7,��
2018/04/12,07:20,0.873,1.457,0.910,1.695,1.165,0.487,0.859,0.823,�k��,4.7,��
2018/04/12,07:30,0.876,1.457,0.911,1.693,1.164,0.488,0.860,0.824,�k��,6.0,��
2018/04/12,07:40,0.874,1.456,0.911,1.689,1.165,0.488,0.861,0.825,�k��,5.7,��
2018/04/12,07:50,0.877,1.459,0.912,1.690,1.168,0.488,0.860,0.822,�k��,3.1,��
2018/04/12,08:00,0.876,1.458,0.912,1.692,1.168,0.489,0.861,0.823,�k��,2.9,��
2018/04/12,08:10,0.876,1.457,0.913,1.695,1.167,0.488,0.861,0.825,�k��,3.1,��
2018/04/12,08:20,0.877,1.459,0.914,1.695,1.165,0.488,0.860,0.824,�k�k��,2.6,��
2018/04/12,08:30,0.876,1.456,0.913,1.696,1.169,0.486,0.861,0.822,�k�k��,1.7,��
2018/04/12,08:40,0.877,1.455,0.914,1.696,1.169,0.486,0.860,0.823,�k��,3.1,��
2018/04/12,08:50,0.878,1.458,0.912,1.693,1.168,0.486,0.859,0.823,�k��,3.5,��
2018/04/12,09:00,0.879,1.458,0.912,1.695,1.168,0.486,0.859,0.822,�쐼,1.5,��
2018/04/12,09:10,0.877,1.456,0.913,1.695,1.167,0.487,0.859,0.821,��쓌,1.7,��
2018/04/12,09:20,0.878,1.455,0.912,1.696,1.168,0.488,0.860,0.821,��쓌,2.5,��
2018/04/12,09:30,0.878,1.457,0.911,1.699,1.169,0.488,0.859,0.821,��쓌,3.3,��
2018/04/12,09:40,0.876,1.459,0.911,1.697,1.168,0.487,0.860,0.820,��쓌,5.3,��
2018/04/12,09:50,0.875,1.457,0.913,1.696,1.168,0.487,0.860,0.821,��쓌,5.4,��
2018/04/12,10:00,0.875,1.459,0.912,1.697,1.169,0.488,0.861,0.819,��쓌,4.8,��
2018/04/12,10:10,0.875,1.459,0.910,1.700,1.171,0.486,0.859,0.820,��쓌,5.4,��
2018/04/12,10:20,0.876,1.459,0.910,1.698,1.169,0.488,0.860,0.820,��쓌,4.3,��
2018/04/12,10:30,0.877,1.460,0.911,1.700,1.168,0.488,0.860,0.820,��쓌,4.5,��
2018/04/12,10:40,0.875,1.460,0.912,1.699,1.170,0.489,0.860,0.822,��,3.1,��
2018/04/12,10:50,0.878,1.464,0.912,1.698,1.173,0.489,0.860,0.821,��쓌,5.0,��
2018/04/12,11:00,0.880,1.461,0.914,1.700,1.171,0.489,0.861,0.821,��쓌,5.8,��
2018/04/12,11:10,0.877,1.464,0.909,1.698,1.173,0.487,0.862,0.821,��쓌,4.8,��
2018/04/12,11:20,0.878,1.463,0.913,1.699,1.172,0.490,0.861,0.821,��쓌,6.1,��
2018/04/12,11:30,0.880,1.465,0.910,1.701,1.173,0.490,0.860,0.822,��쓌,5.4,��
2018/04/12,11:40,0.878,1.463,0.913,1.697,1.174,0.490,0.861,0.821,��쓌,5.7,��
2018/04/12,11:50,0.877,1.465,0.913,1.701,1.176,0.488,0.862,0.822,��쓌,5.5,��
2018/04/12,12:00,0.880,1.469,0.912,1.700,1.173,0.490,0.862,0.822,��쓌,5.3,��
2018/04/12,12:10,0.878,1.469,0.915,1.699,1.174,0.488,0.862,0.822,��쓌,4.8,��
2018/04/12,12:20,0.880,1.466,0.914,1.702,1.176,0.490,0.860,0.824,��쓌,4.8,��
2018/04/12,12:30,0.882,1.469,0.913,1.702,1.176,0.489,0.860,0.821,��쓌,4.8,��
2018/04/12,12:40,0.880,1.467,0.915,1.702,1.176,0.490,0.861,0.823,��쓌,5.5,��
2018/04/12,12:50,0.881,1.469,0.916,1.702,1.177,0.492,0.863,0.822,��쓌,5.2,��
2018/04/12,13:00,0.879,1.463,0.915,1.700,1.177,0.489,0.863,0.822,��쓌,4.0,��
2018/04/12,13:10,0.879,1.467,0.913,1.700,1.175,0.490,0.863,0.822,�쓌,4.2,��
2018/04/12,13:20,0.878,1.467,0.911,1.700,1.174,0.489,0.861,0.822,��쓌,3.9,��
2018/04/12,13:30,0.879,1.469,0.914,1.700,1.178,0.489,0.862,0.821,��쓌,4.4,��
2018/04/12,13:40,0.880,1.468,0.913,1.703,1.176,0.490,0.861,0.821,��,1.7,��
2018/04/12,13:50,0.881,1.466,0.912,1.702,1.178,0.491,0.861,0.821,�k��,1.1,��
2018/04/12,14:00,0.879,1.467,0.914,1.704,1.176,0.491,0.863,0.822,�쐼,1.2,��
2018/04/12,14:10,0.879,1.466,0.915,1.705,1.178,0.490,0.862,0.823,���k��,8.6,��
2018/04/12,14:20,0.881,1.469,0.913,1.702,1.179,0.492,0.864,0.824,��,10.7,��
2018/04/12,14:30,0.884,1.469,0.914,1.703,1.177,0.492,0.864,0.824,���k��,7.0,��
2018/04/12,14:40,0.885,1.468,0.914,1.701,1.178,0.491,0.863,0.823,���k��,9.1,��
2018/04/12,14:50,0.882,1.468,0.916,1.704,1.176,0.489,0.865,0.826,��,6.5,��
2018/04/12,15:00,0.883,1.470,0.915,1.702,1.178,0.492,0.863,0.824,��,9.0,��
2018/04/12,15:10,0.884,1.468,0.917,1.704,1.179,0.492,0.866,0.824,��,7.7,��
2018/04/12,15:20,0.884,1.471,0.917,1.703,1.178,0.491,0.864,0.824,���k��,8.7,��
2018/04/12,15:30,0.883,1.469,0.915,1.704,1.179,0.492,0.865,0.824,��,7.5,��
2018/04/12,15:40,0.884,1.469,0.915,1.704,1.178,0.491,0.865,0.823,��,9.6,��
2018/04/12,15:50,0.884,1.470,0.918,1.705,1.180,0.492,0.864,0.825,���k��,8.2,��
2018/04/12,16:00,0.884,1.470,0.916,1.707,1.178,0.491,0.864,0.824,���k��,6.5,��
2018/04/12,16:10,0.884,1.468,0.917,1.706,1.181,0.493,0.864,0.824,��,6.1,��
2018/04/12,16:20,0.883,1.469,0.917,1.706,1.176,0.491,0.863,0.824,���k��,3.6,��
2018/04/12,16:30,0.884,1.473,0.915,1.707,1.177,0.491,0.863,0.825,��,5.7,��
2018/04/12,16:40,0.883,1.469,0.916,1.705,1.178,0.491,0.864,0.824,���k��,5.8,��
2018/04/12,16:50,0.883,1.472,0.918,1.706,1.178,0.491,0.863,0.823,���k��,4.9,��
2018/04/12,17:00,0.882,1.470,0.917,1.707,1.179,0.491,0.862,0.822,�k��,7.6,��
2018/04/12,17:10,0.883,1.470,0.917,1.709,1.177,0.491,0.862,0.824,���k��,11.3,��
2018/04/12,17:20,0.883,1.469,0.917,1.706,1.179,0.492,0.863,0.824,���k��,9.4,��
2018/04/12,17:30,0.880,1.472,0.918,1.709,1.177,0.492,0.863,0.825,���k��,7.5,��
2018/04/12,17:40,0.884,1.475,0.917,1.710,1.176,0.490,0.861,0.822,�k��,9.7,��
2018/04/12,17:50,0.883,1.472,0.917,1.707,1.179,0.491,0.862,0.822,���k��,9.2,��
2018/04/12,18:00,0.882,1.477,0.916,1.710,1.177,0.492,0.862,0.826,���k��,9.1,��
2018/04/12,18:10,0.886,1.472,0.916,1.708,1.180,0.491,0.861,0.825,�k��,8.2,��
2018/04/12,18:20,0.886,1.471,0.917,1.708,1.178,0.490,0.863,0.825,�k��,9.5,��
2018/04/12,18:30,0.886,1.473,0.915,1.708,1.179,0.493,0.861,0.826,�k��,8.5,��
2018/04/12,18:40,0.885,1.473,0.918,1.710,1.181,0.491,0.863,0.826,���k��,9.2,��
2018/04/12,18:50,0.885,1.469,0.920,1.711,1.180,0.491,0.861,0.828,���k��,9.2,��
2018/04/12,19:00,0.884,1.473,0.920,1.710,1.181,0.492,0.861,0.826,���k��,9.3,��
2018/04/12,19:10,0.883,1.474,0.919,1.714,1.181,0.492,0.860,0.826,���k��,7.8,��
2018/04/12,19:20,0.883,1.472,0.920,1.711,1.181,0.491,0.860,0.827,���k��,9.1,��
2018/04/12,19:30,0.886,1.473,0.920,1.710,1.180,0.493,0.862,0.826,��,8.9,��
2018/04/12,19:40,0.883,1.472,0.918,1.712,1.183,0.493,0.861,0.826,��,8.9,��
2018/04/12,19:50,0.886,1.473,0.919,1.711,1.182,0.492,0.861,0.827,��,9.4,��
2018/04/12,20:00,0.883,1.473,0.919,1.710,1.182,0.492,0.863,0.828,��,9.5,��
2018/04/12,20:10,0.883,1.474,0.919,1.712,1.181,0.491,0.860,0.827,��,10.7,��
2018/04/12,20:20,0.885,1.471,0.918,1.714,1.178,0.492,0.862,0.827,��,7.4,��
2018/04/12,20:30,0.885,1.472,0.918,1.713,1.182,0.490,0.861,0.825,��,7.5,��
2018/04/12,20:40,0.883,1.473,0.919,1.711,1.181,0.490,0.861,0.826,���k��,6.4,��
2018/04/12,20:50,0.884,1.472,0.919,1.714,1.181,0.491,0.860,0.825,��,5.7,��
2018/04/12,21:00,0.881,1.473,0.916,1.715,1.181,0.492,0.861,0.826,��,5.0,��
2018/04/12,21:10,0.884,1.470,0.918,1.715,1.181,0.491,0.860,0.825,���k��,7.4,��
2018/04/12,21:20,0.882,1.475,0.919,1.711,1.181,0.491,0.862,0.827,��,7.1,��
2018/04/12,21:30,0.883,1.471,0.919,1.711,1.180,0.491,0.862,0.825,��,7.4,��
2018/04/12,21:40,0.884,1.471,0.918,1.712,1.181,0.491,0.859,0.826,��,7.5,��
2018/04/12,21:50,0.885,1.471,0.918,1.713,1.180,0.490,0.860,0.825,��,9.9,��
2018/04/12,22:00,0.884,1.471,0.918,1.711,1.180,0.490,0.860,0.824,��,10.8,��
2018/04/12,22:10,0.883,1.473,0.918,1.715,1.181,0.491,0.859,0.825,��,9.0,��
2018/04/12,22:20,0.883,1.472,0.916,1.711,1.182,0.489,0.859,0.824,���k��,7.1,��
2018/04/12,22:30,0.884,1.470,0.918,1.713,1.179,0.489,0.861,0.823,��,6.9,��
2018/04/12,22:40,0.880,1.472,0.917,1.713,1.179,0.490,0.860,0.828,��,6.0,��
2018/04/12,22:50,0.883,1.471,0.919,1.712,1.181,0.490,0.862,0.825,��,6.6,��
2018/04/12,23:00,0.882,1.474,0.919,1.714,1.181,0.489,0.861,0.825,��,8.1,��
2018/04/12,23:10,0.883,1.472,0.918,1.712,1.180,0.488,0.861,0.825,���쐼,6.3,��
2018/04/12,23:20,0.881,1.474,0.917,1.710,1.178,0.489,0.862,0.824,��,5.9,��
2018/04/12,23:30,0.881,1.468,0.915,1.711,1.182,0.490,0.860,0.825,��,6.2,��
2018/04/12,23:40,0.881,1.471,0.916,1.712,1.180,0.490,0.862,0.825,��,8.4,��
2018/04/12,23:50,0.883,1.472,0.919,1.711,1.180,0.489,0.860,0.826,��,8.0,��
